Theta_e
320 320 321 323 324 324 322 322 320 318 319 321 325 323 322 320 319 318 319 321 324 323 324 326 325 326 323 322 320 314 312 310 309 311 311 312 310 312 315 315 315 313 315
314 315 314 315 316 316 317 319 321 319 321 324 328 324 326 325 323 320 320 321 322 325 327 326 325 325 319 318 316 314 313 314 312 311 311 308 309 311 311 311 314 316 314
307 307 307 307 308 309 309 313 312 311 311 312 314 314 315 315 317 317 314 314 315 319 320 319 319 318 316 317 316 314 315 316 312 311 311 311 310 309 310 311 311 314 313
304 303 302 302 303 304 305 306 307 308 307 307 308 310 310 310 310 309 308 307 307 308 308 310 310 309 308 309 309 308 309 309 310 311 310 312 314 312 309 310 311 309 312
303 302 301 301 301 302 303 303 304 304 304 305 306 306 305 308 306 303 303 302 302 302 303 305 305 308 311 310 307 303 302 303 304 306 306 306 307 306 305 309 308 311 311
302 301 301 301 301 300 300 300 301 300 301 302 302 302 302 306 300 302 300 298 298 298 297 299 301 304 305 306 305 306 306 302 301 301 302 300 300 304 305 306 305 302 304
302 302 301 301 300 299 300 299 298 297 297 298 298 299 298 299 298 298 300 297 296 296 295 296 297 300 300 299 301 303 304 305 304 302 299 300 300 300 303 303 302 303 303
301 301 301 300 299 298 297 296 295 294 294 295 296 296 296 298 299 297 298 295 294 295 295 295 295 295 296 298 298 299 300 301 301 302 302 302 303 304 304 305 305 306 307
299 298 299 298 296 295 293 292 291 291 291 292 293 293 293 294 296 296 295 293 293 293 295 295 296 295 296 296 295 294 295 297 301 301 300 299 297 297 299 303 301 300 299
295 295 295 295 293 291 289 289 289 288 290 291 291 291 293 292 294 294 294 295 293 292 293 294 297 297 295 295 293 295 294 295 297 298 298 297 298 299 300 301 301 298 298
294 293 292 290 290 290 288 287 287 287 287 287 288 289 290 291 294 295 295 296 295 295 295 294 295 295 294 294 294 295 295 296 296 295 295 295 296 297 300 303 303 301 299
291 290 289 288 289 290 286 285 285 285 285 286 287 288 291 295 296 295 294 294 295 294 294 296 296 294 293 293 293 293 293 294 294 293 293 293 294 296 299 301 302 302 303
287 286 286 286 286 286 284 283 284 284 286 290 291 291 292 294 295 296 294 293 293 292 294 295 294 293 292 293 294 294 293 293 292 292 292 294 296 298 300 300 301 302 304
284 283 283 283 284 283 284 284 286 288 289 290 290 290 291 292 294 292 291 291 292 292 293 293 293 293 293 294 294 294 294 294 294 294 295 298 299 300 299 301 300 303 304
282 282 284 285 286 287 286 289 289 291 291 290 290 291 290 290 290 289 289 289 290 291 291 291 291 292 292 292 292 294 294 295 295 296 298 300 301 301 301 302 301 302 301
283 285 286 287 288 288 288 289 292 291 292 291 290 290 290 289 289 289 289 289 289 289 290 290 291 292 292 293 293 293 295 296 297 298 299 301 301 302 301 301 302 302 301
286 286 287 288 287 288 289 287 286 289 291 290 289 289 288 288 288 289 289 289 290 291 291 292 292 293 294 295 295 295 295 298 299 299 299 301 302 303 300 301 301 301 301
287 289 288 288 287 287 287 286 286 286 285 286 288 288 288 287 288 288 288 289 289 290 291 292 293 294 295 296 297 298 301 302 303 303 303 304 305 305 304 303 303 302 303
288 289 288 288 287 287 287 286 286 286 285 285 286 286 286 287 288 288 288 287 287 287 289 290 292 295 296 297 299 300 300 300 299 301 305 308 307 306 306 308 306 297 299
288 288 288 287 287 286 286 286 286 286 285 285 285 284 285 285 284 285 286 286 286 287 288 289 292 294 298 299 299 299 299 298 298 299 301 305 308 308 308 308 308 307 308
288 288 285 287 286 286 286 285 285 285 285 284 285 285 284 284 284 284 284 285 285 286 287 289 291 293 294 296 295 295 295 295 295 297 298 300 303 306 309 309 310 309 309
288 287 287 286 286 286 286 286 285 284 284 284 284 284 284 284 284 284 284 285 286 287 288 288 290 290 292 292 292 291 291 291 291 292 294 297 301 304 306 309 310 310 310
287 287 287 286 286 285 284 281 283 283 283 283 283 283 283 283 283 283 284 285 286 286 287 288 287 288 290 289 290 289 288 288 288 288 291 293 300 301 303 305 310 309 311
288 287 286 284 282 280 279 279 281 281 281 281 282 282 281 282 282 282 283 284 285 286 286 287 287 287 287 287 288 288 288 287 287 288 289 292 298 300 302 305 310 310 309
285 284 283 281 280 278 278 278 279 279 279 279 280 280 280 280 281 281 282 283 283 284 285 286 286 286 287 286 286 286 285 285 286 286 288 290 297 300 301 302 309 310 308
282 282 281 280 279 279 278 278 278 279 279 279 279 279 279 279 279 280 281 281 281 283 283 284 285 285 286 285 285 284 285 285 285 285 286 292 296 299 299 300 305 309 309
Wind_Speed
9 7 8 6 6 6 6 5 5 4 6 5 1 1 2 3 4 5 3 1 4 4 5 7 10 11 8 7 7 4 5 5 7 4 4 4 5 7 6 6 6 6 5
9 10 8 9 8 7 6 7 6 6 5 2 2 1 3 4 4 5 5 5 6 7 8 5 16 8 7 5 3 6 5 4 5 12 4 4 6 6 6 7 7 6 6
9 9 8 8 8 7 7 7 8 7 7 8 7 7 6 6 5 5 5 6 6 4 3 4 5 5 5 4 4 4 3 4 4 6 7 4 6 4 7 6 7 10 6
9 9 8 8 7 7 7 8 7 6 7 7 7 6 7 5 6 6 6 6 5 4 3 3 4 5 5 4 4 4 4 4 5 7 7 6 5 5 3 5 9 6 9
10 10 8 7 6 7 7 7 6 8 7 6 6 6 6 6 6 6 6 6 6 5 5 5 5 8 12 9 5 5 5 5 5 6 8 5 5 3 5 5 8 8 6
8 7 6 7 7 7 7 7 7 8 8 7 8 7 7 5 4 6 6 4 4 5 6 6 5 10 8 10 13 14 10 6 7 5 8 10 9 5 4 5 5 4 8
7 6 6 6 7 6 6 6 6 7 6 6 6 6 6 6 7 7 9 5 5 5 6 5 6 6 9 8 10 11 11 13 12 8 11 10 12 5 5 9 9 10 10
6 6 6 6 6 5 6 6 5 4 5 5 6 6 6 6 9 9 9 5 5 6 6 6 6 7 6 8 9 10 10 10 10 8 10 11 11 10 12 13 13 11 9
8 9 8 6 5 5 5 4 2 2 3 3 5 7 7 7 10 8 6 5 5 6 6 6 6 7 11 12 8 9 10 10 10 14 16 15 15 16 16 11 10 9 9
7 6 5 4 4 4 4 4 2 2 4 4 6 6 9 7 9 7 2 2 4 5 6 7 13 11 12 13 9 10 11 12 11 10 10 11 12 14 18 12 9 9 9
3 3 3 4 5 3 4 3 4 5 5 4 5 6 6 6 5 3 5 3 4 6 6 7 6 11 13 13 14 10 12 12 14 12 12 10 9 10 11 11 11 10 10
4 5 5 5 6 5 5 5 5 5 5 5 5 5 4 4 5 6 8 7 8 7 9 8 10 14 15 17 15 18 18 16 9 9 9 10 10 10 10 10 11 11 11
6 6 5 5 5 4 5 5 4 4 4 4 4 4 5 4 4 7 7 10 13 9 8 11 17 16 16 13 13 13 13 9 9 8 9 10 10 9 9 10 11 12 13
5 6 5 5 6 5 4 3 3 3 4 4 4 5 5 5 4 5 7 7 11 8 9 8 13 16 16 13 12 9 7 8 8 9 10 10 10 9 8 8 8 7 7
5 5 5 5 6 6 4 4 4 5 4 4 4 4 5 5 6 11 10 7 7 9 12 6 6 6 7 7 6 7 7 8 8 9 10 10 9 8 8 8 7 7 7
5 4 4 4 4 4 4 5 6 5 8 5 5 5 4 8 14 15 15 15 15 13 2 5 7 6 7 7 8 9 8 10 9 9 10 10 10 9 8 7 7 7 6
4 4 4 4 4 4 4 4 5 5 7 10 11 10 11 12 14 14 15 15 11 11 3 6 6 6 8 9 9 9 10 10 11 10 11 11 9 9 6 7 6 6 6
4 7 3 3 4 4 4 5 4 5 6 6 6 10 13 16 15 13 14 9 7 7 6 7 7 7 8 10 10 10 10 10 10 9 10 7 7 5 6 7 7 8 7
3 2 2 3 3 5 4 5 5 5 5 5 6 9 13 15 11 10 11 6 6 7 7 7 8 8 8 9 10 10 11 11 11 11 9 5 3 5 8 6 5 7 7
3 8 7 4 4 4 4 4 5 5 6 6 7 8 8 8 8 9 9 8 7 7 7 8 8 9 9 10 10 11 10 12 13 13 13 12 7 6 4 2 2 4 4
3 4 5 5 5 5 5 6 6 6 7 7 6 8 12 7 8 8 8 8 8 8 8 8 9 9 9 10 10 11 11 11 11 11 11 12 12 10 5 5 3 2 5
4 5 5 5 5 5 5 5 6 6 7 8 7 9 13 8 8 8 8 8 8 8 8 9 8 9 9 9 10 10 11 11 12 11 11 12 11 11 10 6 5 3 4
4 5 5 6 6 7 7 6 6 8 8 8 8 9 10 9 9 9 10 9 9 9 9 8 9 9 10 10 9 9 10 11 11 11 12 11 11 11 10 7 4 3 5
6 7 7 7 6 6 5 6 8 10 9 9 9 9 10 10 10 11 10 10 10 9 9 9 9 13 11 11 10 10 10 11 11 10 14 11 10 13 11 10 1 3 4
7 8 7 7 5 4 5 7 8 9 9 9 9 9 9 10 10 11 10 10 10 10 11 10 10 14 15 17 17 19 17 18 15 15 10 11 10 13 10 9 8 3 5
7 7 6 5 5 5 6 7 8 8 9 9 8 9 10 10 10 10 10 11 11 11 13 10 13 19 19 15 19 20 19 19 17 19 12 10 10 8 9 11 13 4 6
Wind_Direction
63 60 64 64 64 60 47 36 46 9 343 351 12 192 211 251 226 228 242 292 273 282 260 263 272 267 255 230 215 198 215 187 229 266 231 232 226 241 254 239 231 222 231
78 70 63 62 59 52 46 43 39 35 18 22 7 237 299 283 254 258 260 245 256 265 258 277 275 279 257 260 231 238 233 229 236 259 240 247 243 248 245 255 259 251 225
78 75 56 46 53 43 36 38 43 42 31 26 31 35 25 8 41 46 53 40 44 17 4 266 268 279 282 275 272 265 266 269 265 270 268 230 236 232 256 262 254 258 238
74 74 66 54 56 53 43 36 37 35 39 29 22 24 15 12 37 18 21 19 19 7 345 310 289 284 279 275 273 279 278 265 260 270 274 268 254 224 225 242 255 237 247
74 74 74 68 60 57 49 41 34 34 22 18 18 16 15 13 19 23 24 17 9 359 349 332 327 325 318 304 298 281 270 260 265 273 276 253 245 223 214 236 248 257 254
83 82 81 77 69 60 50 37 32 25 22 23 15 10 9 13 44 49 45 15 345 331 314 310 310 314 315 332 323 309 295 288 276 270 278 276 283 250 226 238 247 245 264
101 103 95 86 77 65 66 58 38 29 20 20 8 359 345 332 340 343 348 332 319 313 306 306 309 313 313 292 285 283 274 268 260 263 269 262 272 251 247 254 256 254 257
80 68 66 81 86 73 61 52 36 15 7 343 330 320 312 305 303 301 310 311 309 298 287 285 285 291 290 303 313 311 303 286 269 262 262 272 273 270 261 259 260 263 263
49 48 40 48 58 55 46 24 2 348 307 299 298 297 296 294 296 304 331 332 318 305 294 286 279 283 287 291 295 289 287 279 271 258 258 262 266 267 258 262 250 251 257
48 51 42 36 51 41 3 329 292 310 290 300 294 292 296 294 297 301 114 302 296 297 291 276 274 270 271 275 278 279 280 279 288 286 280 274 267 267 257 238 237 245 251
77 72 40 17 345 351 336 323 310 307 297 292 288 290 287 283 293 306 315 306 295 295 284 281 271 260 260 263 262 269 271 283 282 281 277 273 267 258 252 242 236 236 249
17 10 0 348 337 331 321 301 302 302 300 299 290 288 287 295 315 305 299 290 300 296 290 287 290 293 287 282 284 279 272 272 271 269 269 266 263 259 251 240 239 240 243
0 342 327 320 309 305 304 303 310 309 292 304 314 311 316 321 310 309 353 318 302 297 283 287 291 287 287 288 277 271 270 277 269 258 257 256 257 258 258 253 248 244 246
321 315 314 328 326 318 302 292 288 287 302 310 314 314 310 314 321 0 323 305 294 290 300 310 307 296 281 275 281 275 270 259 258 255 255 258 261 258 250 243 244 249 255
323 316 337 335 330 320 293 293 301 291 284 303 305 326 332 331 343 318 314 323 320 306 310 293 287 290 291 290 283 277 275 269 260 258 262 267 264 258 247 243 232 241 244
333 325 311 307 313 308 302 308 298 308 339 26 46 28 358 330 329 331 326 318 310 305 276 287 294 294 299 301 298 295 287 280 269 267 268 266 267 266 246 227 229 225 232
308 311 313 322 314 330 352 360 345 352 2 32 31 6 352 343 341 337 336 331 325 333 283 300 300 314 311 305 296 293 293 291 282 275 269 269 265 266 234 226 219 219 221
324 337 343 356 6 5 10 8 3 3 1 359 7 358 352 352 342 345 346 342 352 345 337 328 319 323 321 317 319 317 319 317 319 303 281 279 265 255 242 236 216 214 219
329 333 360 14 16 29 17 16 12 7 5 4 1 5 0 346 345 357 1 8 344 336 336 332 329 324 321 323 329 327 335 336 336 338 317 278 250 278 276 278 173 200 203
60 60 55 42 30 16 15 16 10 12 21 22 19 9 352 356 10 5 2 353 347 339 334 333 332 330 340 344 345 339 345 345 346 351 348 344 318 298 315 17 240 217 198
66 57 43 47 38 31 30 31 27 24 23 25 18 9 359 9 4 1 353 353 346 340 337 335 333 338 347 349 351 345 346 341 341 342 338 339 337 335 335 332 12 47 123
68 68 59 50 39 31 23 37 29 27 27 23 16 11 7 16 11 4 1 355 348 344 343 341 345 347 340 348 342 342 337 335 335 336 336 329 330 335 339 331 357 79 113
73 65 55 52 46 35 37 27 21 30 27 22 19 18 14 12 8 3 359 354 352 351 352 353 352 348 350 345 347 344 335 332 324 322 325 325 333 342 328 317 329 14 109
70 66 62 55 47 40 33 38 43 34 29 23 21 17 11 6 4 2 357 355 354 356 355 355 356 350 352 349 346 344 334 331 321 317 321 316 323 332 337 326 194 85 71
65 67 62 60 46 33 35 43 46 40 35 29 24 17 12 6 4 3 358 358 355 356 355 352 355 348 355 353 353 346 339 335 328 321 319 305 310 327 348 346 359 104 106
68 66 64 57 53 45 43 49 46 40 36 30 23 19 13 8 2 1 357 359 357 355 353 353 352 352 355 354 350 346 346 343 341 332 328 315 330 339 346 347 349 343 151